FW2617 Weather Reports


time (UTC)temp
F
wind
direction
speed
knots
gust
knots
rain 1hr
in
rain 24hr
in
rain mn
in
humidity
%
barometer
mb
20260906110925 77 0 0.0 0.0 0.00 0.00 0.00 84 1010.0
20260906110003 77 0 0.0 0.0 0.00 0.00 0.00 83 1010.0
20260906105403 77 69 0.0 2.6 0.00 0.00 0.00 83 1010.0
20260906104503 77 90 0.0 2.6 0.00 0.00 0.00 83 1009.9
20260906103603 78 0 0.0 0.0 0.00 0.00 0.00 82 1009.8
20260906102724 78 0 0.0 0.0 0.00 0.00 0.00 82 1009.7
20260906101804 78 0 0.0 0.0 0.00 0.00 0.00 82 1009.6
20260906100903 78 0 0.0 0.0 0.00 0.00 0.00 82 1009.4
20260906100003 78 0 0.0 0.0 0.00 0.00 0.00 82 1009.3
20260906095404 78 0 0.0 0.0 0.00 0.00 0.00 82 1009.2
20260906094504 78 0 0.0 0.0 0.00 0.00 0.00 81 1009.1
20260906093603 78 165 0.0 1.7 0.00 0.00 0.00 82 1009.1
20260906092703 78 167 0.9 1.7 0.00 0.00 0.00 81 1009.1
20260906091803 78 158 0.9 3.5 0.00 0.00 0.00 81 1009.1
20260906090903 79 160 0.9 3.5 0.00 0.00 0.00 81 1009.0
20260906090003 79 173 0.9 3.5 0.00 0.00 0.00 81 1009.0
20260906085404 79 168 0.9 1.7 0.00 0.00 0.00 80 1009.0
20260906084504 79 0 0.0 0.0 0.00 0.00 0.00 80 1008.9
20260906083603 79 0 0.0 0.0 0.00 0.00 0.00 80 1009.0
20260906082703 79 0 0.0 0.0 0.00 0.00 0.00 80 1009.1
20260906081803 80 0 0.0 0.0 0.00 0.00 0.00 79 1009.2
20260906080903 80 0 0.0 0.0 0.00 0.00 0.00 79 1009.2
20260906080004 80 0 0.0 0.0 0.00 0.00 0.00 78 1009.1
20260906075403 80 0 0.0 0.0 0.00 0.00 0.00 78 1009.0
20260906074503 80 197 0.0 2.6 0.00 0.00 0.00 78 1009.1
20260906073603 80 169 0.9 3.5 0.00 0.00 0.00 78 1009.1
20260906072703 80 170 1.7 5.2 0.00 0.00 0.00 78 1009.2
20260906071803 81 167 1.7 4.3 0.00 0.00 0.00 77 1009.4
20260906070903 81 170 0.9 4.3 0.00 0.00 0.00 77 1009.5
20260906070003 81 168 1.7 5.2 0.00 0.00 0.00 77 1009.7
20260906065403 81 163 1.7 5.2 0.00 0.00 0.00 77 1009.7
20260906064504 81 166 1.7 4.3 0.00 0.00 0.00 76 1009.7
20260906063603 82 162 1.7 4.3 0.00 0.00 0.00 76 1009.8
20260906062703 82 166 1.7 5.2 0.00 0.00 0.00 75 1009.8
20260906061803 82 168 1.7 5.2 0.00 0.00 0.00 75 1009.9
20260906060904 82 170 1.7 6.1 0.00 0.00 0.00 75 1010.0
20260906060003 83 169 2.6 5.2 0.00 0.00 0.00 74 1009.9
20260906055403 83 167 2.6 5.2 0.00 0.00 0.00 74 1009.9
20260906054503 83 162 1.7 4.3 0.00 0.00 0.00 74 1009.7
20260906053603 83 163 0.0 3.5 0.00 0.00 0.00 74 1009.6
20260906052724 83 163 0.0 1.7 0.00 0.00 0.00 73 1009.5
20260906051804 83 175 0.9 3.5 0.00 0.00 0.00 73 1009.5
20260906050903 83 165 1.7 5.2 0.00 0.00 0.00 73 1009.5
20260906050004 84 163 1.7 5.2 0.00 0.00 0.00 72 1009.6
20260906045403 84 161 1.7 4.3 0.00 0.00 0.00 72 1009.6
20260906044503 84 159 1.7 5.2 0.00 0.00 0.00 71 1009.6
20260906043603 84 157 1.7 5.2 0.00 0.00 0.00 71 1009.5
20260906042724 84 159 1.7 6.1 0.00 0.00 0.00 71 1009.5
20260906041803 84 165 1.7 4.3 0.00 0.00 0.00 70 1009.4
20260906040924 84 174 1.7 4.3 0.00 0.00 0.00 70 1009.5
20260906040004 85 169 1.7 5.2 0.00 0.00 0.00 70 1009.4
20260906035424 85 166 1.7 5.2 0.00 0.00 0.00 70 1009.2
20260906034503 85 158 1.7 5.2 0.00 0.00 0.00 70 1009.4
20260906033624 85 158 1.7 5.2 0.00 0.00 0.00 69 1009.4
20260906032703 86 151 1.7 4.3 0.00 0.00 0.00 69 1009.5
20260906031803 86 148 2.6 7.8 0.00 0.00 0.00 68 1009.5
20260906030903 86 148 2.6 7.8 0.00 0.00 0.00 68 1009.4
20260906030003 86 146 2.6 6.1 0.00 0.00 0.00 68 1009.3
20260906025404 86 143 1.7 6.1 0.00 0.00 0.00 67 1009.4
20260906024503 87 146 3.5 7.8 0.00 0.00 0.00 67 1009.2
20260906023603 87 146 3.5 7.8 0.00 0.00 0.00 67 1009.1
20260906022703 87 149 2.6 7.0 0.00 0.00 0.00 66 1008.9
20260906021803 87 148 3.5 11.3 0.00 0.00 0.00 66 1008.6
20260906020903 87 148 3.5 11.3 0.00 0.00 0.00 65 1008.6
20260906020003 88 142 2.6 8.7 0.00 0.00 0.00 65 1008.5
20260906015404 88 141 3.5 8.7 0.00 0.00 0.00 65 1008.4
20260906014503 88 143 3.5 9.6 0.00 0.00 0.00 64 1008.3
20260906013603 88 140 2.6 9.6 0.00 0.00 0.00 63 1008.2
20260906012703 88 141 3.5 7.8 0.00 0.00 0.00 63 1008.0
20260906011803 89 137 3.5 10.4 0.00 0.00 0.00 61 1007.9
20260906010903 90 129 2.6 7.0 0.00 0.00 0.00 59 1007.8
20260906010003 90 130 3.5 7.8 0.00 0.00 0.00 56 1007.9
20260906005403 92 129 4.3 9.6 0.00 0.00 0.00 54 1007.9
20260906004504 94 143 3.5 11.3 0.00 0.00 0.00 48 1007.7
20260906003604 95 147 1.7 6.1 0.00 0.00 0.00 46 1007.5
20260906002704 95 151 2.6 7.8 0.00 0.00 0.00 46 1007.5
20260906001804 96 145 3.5 8.7 0.00 0.00 0.00 45 1007.4
20260906000904 96 148 3.5 8.7 0.00 0.00 0.00 44 1007.4
20260906000004 96 149 2.6 8.7 0.00 0.00 0.00 43 1007.3
20260905235405 97 152 2.6 9.6 0.00 0.00 0.00 43 1007.2
20260905234504 98 148 2.6 9.6 0.00 0.00 0.00 42 1007.1
20260905233604 97 137 2.6 7.8 0.00 0.00 0.00 43 1007.2
20260905232705 97 140 3.5 8.7 0.00 0.00 0.00 42 1007.1
20260905231826 99 133 2.6 8.7 0.00 0.00 0.00 40 1007.2
20260905230904 100 103 0.9 3.5 0.00 0.00 0.00 37 1007.1
20260905230004 101 91 0.9 2.6 0.00 0.00 0.00 37 1007.0
20260905225404 101 70 0.9 3.5 0.00 0.00 0.00 37 1007.1
20260905224504 102 64 1.7 4.3 0.00 0.00 0.00 37 1007.0
20260905223604 102 104 1.7 3.5 0.00 0.00 0.00 38 1007.0
20260905222704 102 82 1.7 5.2 0.00 0.00 0.00 38 1006.9
20260905221804 101 138 1.7 5.2 0.00 0.00 0.00 39 1006.9
20260905220925 102 166 1.7 4.3 0.00 0.00 0.00 38 1007.0
20260905220004 102 158 2.6 7.0 0.00 0.00 0.00 38 1007.1
20260905215404 101 142 1.7 5.2 0.00 0.00 0.00 38 1007.1
20260905214504 101 139 1.7 4.3 0.00 0.00 0.00 38 1007.3
20260905213604 101 61 1.7 3.5 0.00 0.00 0.00 39 1007.4
20260905212704 100 43 2.6 6.1 0.00 0.00 0.00 40 1007.6
20260905211804 99 29 1.7 3.5 0.00 0.00 0.00 40 1007.7
20260905210904 100 58 1.7 4.3 0.00 0.00 0.00 40 1007.8
20260905210025 100 64 1.7 4.3 0.00 0.00 0.00 43 1007.8
20260905205404 99 65 0.9 4.3 0.00 0.00 0.00 42 1008.0
20260905204504 99 121 1.7 5.2 0.00 0.00 0.00 40 1008.1
20260905203605 101 177 1.7 5.2 0.00 0.00 0.00 39 1008.1
20260905202725 101 204 1.7 4.3 0.00 0.00 0.00 38 1008.2
20260905201805 100 195 1.7 4.3 0.00 0.00 0.00 39 1008.3
20260905200904 100 166 1.7 4.3 0.00 0.00 0.00 40 1008.6
20260905200025 101 132 1.7 5.2 0.00 0.00 0.00 39 1008.7
20260905195405 102 161 1.7 5.2 0.00 0.00 0.00 38 1008.8
20260905194504 103 208 1.7 6.1 0.00 0.00 0.00 37 1009.0
20260905193604 103 143 1.7 6.1 0.00 0.00 0.00 39 1009.1
20260905192704 102 69 1.7 4.3 0.00 0.00 0.00 40 1009.2
20260905191804 101 102 1.7 6.1 0.00 0.00 0.00 41 1009.3
20260905190904 99 290 2.6 7.8 0.00 0.00 0.00 40 1009.4
20260905190004 100 211 2.6 7.0 0.00 0.00 0.00 39 1009.7
20260905185404 100 205 1.7 7.0 0.00 0.00 0.00 41 1009.8
20260905184504 100 242 1.7 7.0 0.00 0.00 0.00 41 1009.9
20260905183625 99 160 2.6 8.7 0.00 0.00 0.00 42 1010.1
20260905182704 100 58 2.6 8.7 0.00 0.00 0.00 43 1010.2
20260905181804 100 108 1.7 5.2 0.00 0.00 0.00 43 1010.3
20260905180904 98 124 2.6 7.8 0.00 0.00 0.00 45 1010.5
20260905180004 97 166 1.7 7.0 0.00 0.00 0.00 47 1010.6
20260905175404 96 194 1.7 6.1 0.00 0.00 0.00 47 1010.7
20260905174504 96 167 0.9 4.3 0.00 0.00 0.00 47 1010.9
20260905173604 96 180 3.5 9.6 0.00 0.00 0.00 47 1011.0
20260905172725 96 161 2.6 7.0 0.00 0.00 0.00 47 1011.1
20260905171804 95 168 2.6 7.8 0.00 0.00 0.00 48 1011.2
20260905170926 95 125 1.7 6.1 0.00 0.00 0.00 49 1011.3
20260905170025 94 199 3.5 9.6 0.00 0.00 0.00 51 1011.3
20260905165425 94 280 2.6 9.6 0.00 0.00 0.00 52 1011.3
20260905164525 93 257 2.6 7.0 0.00 0.00 0.00 52 1011.3
20260905163604 93 192 3.5 8.7 0.00 0.00 0.00 53 1011.5
20260905162725 92 187 2.6 6.1 0.00 0.00 0.00 55 1011.4
20260905161825 91 199 2.6 6.1 0.00 0.00 0.00 58 1011.4
20260905160904 90 195 2.6 6.1 0.00 0.00 0.00 58 1011.4
20260905160004 89 192 1.7 6.1 0.00 0.00 0.00 59 1011.4
20260905155404 89 204 2.6 5.2 0.00 0.00 0.00 60 1011.4
20260905154504 89 186 2.6 9.6 0.00 0.00 0.00 60 1011.4
20260905153604 88 165 2.6 7.0 0.00 0.00 0.00 61 1011.4
20260905152704 87 183 1.7 5.2 0.00 0.00 0.00 63 1011.3
20260905151825 87 180 2.6 6.1 0.00 0.00 0.00 64 1011.3
20260905150904 86 182 2.6 5.2 0.00 0.00 0.00 65 1011.3
20260905150004 85 190 2.6 5.2 0.00 0.00 0.00 67 1011.3
20260905145404 84 196 1.7 4.3 0.00 0.00 0.00 69 1011.3
20260905144504 84 200 1.7 4.3 0.00 0.00 0.00 72 1011.3
20260905143604 83 202 2.6 6.1 0.00 0.00 0.00 75 1011.3
20260905142704 82 199 2.6 6.1 0.00 0.00 0.00 77 1011.4
20260905141804 81 191 1.7 5.2 0.00 0.00 0.00 79 1011.3
20260905140904 80 203 0.9 3.5 0.00 0.00 0.00 82 1011.4
20260905140005 80 189 1.7 3.5 0.00 0.00 0.00 83 1011.3
20260905135404 79 197 0.9 4.3 0.00 0.00 0.00 84 1011.2
20260905134504 79 175 0.9 4.3 0.00 0.00 0.00 84 1011.1
20260905133604 78 179 0.9 3.5 0.00 0.00 0.00 85 1011.0
20260905132704 78 187 1.7 4.3 0.00 0.00 0.00 85 1010.9
20260905131825 77 174 1.7 5.2 0.00 0.00 0.00 86 1011.0
20260905130904 76 168 1.7 5.2 0.00 0.00 0.00 87 1010.8
20260905130025 76 166 1.7 4.3 0.00 0.00 0.00 87 1010.7
20260905125425 76 166 1.7 5.2 0.00 0.00 0.00 87 1010.9
20260905124504 76 176 0.0 3.5 0.00 0.00 0.00 87 1010.8
20260905123604 76 0 0.0 0.0 0.00 0.00 0.00 87 1010.9
20260905122704 76 0 0.0 0.0 0.00 0.00 0.00 86 1010.8
20260905121826 76 0 0.0 0.0 0.00 0.00 0.00 86 1010.9
20260905120904 76 0 0.0 0.0 0.00 0.00 0.00 86 1010.8
20260905120004 76 0 0.0 0.0 0.00 0.00 0.00 85 1010.8
20260905115405 76 0 0.0 0.0 0.00 0.00 0.00 85 1010.6
20260905114525 76 0 0.0 0.0 0.00 0.00 0.00 85 1010.7
20260905113604 76 0 0.0 0.0 0.00 0.00 0.00 85 1010.6
20260905112704 76 0 0.0 0.0 0.00 0.00 0.00 85 1010.6
20260905111804 76 0 0.0 0.0 0.00 0.00 0.00 85 1010.5